Location: Unspecified
(0.0000°N, 0.0000°E)
Time: 16:50:30
(UTC+00:00)

ISS - Pass Details

Date: 08 August 2021
Orbit: 417 x 423 km, 51.6° (Epoch: 26 September)

Event Time Altitude Azimuth Distance (km) Brightness Sun altitude
Rises 19:36:35 0° 347° (NNW) 2,332 0.4 -21.8°
Reaches altitude 10° 19:39:01 10° 4° (N) 1,475 -0.9 -22.4°
Enters shadow 19:39:19 12° 8° (N) 1,387 -1.0 -22.5°
